Wind_Speed
25 25 26 27 27 27 28 28 27 28 27 27 27 27 26 25 25 25 25 25 24 24 25 25 24 22 22 22 21 20 19 19 18 17 17 16 16 15 14 13 12 11 10
28 27 27 28 29 28 27 28 28 29 28 29 29 29 28 27 26 26 27 28 28 26 26 27 26 25 24 24 23 22 22 21 20 20 19 18 18 17 16 15 14 13 12
28 28 30 31 30 30 30 29 29 29 29 30 30 31 30 29 29 28 29 30 30 28 27 28 28 27 26 26 25 24 24 24 22 22 21 20 19 18 18 17 16 14 14
30 30 30 31 30 31 31 30 29 30 30 30 31 31 31 30 29 29 29 30 31 30 29 30 30 28 28 29 28 27 26 26 25 24 23 22 21 20 19 19 17 16 16
31 31 32 32 32 31 31 31 31 32 31 30 30 31 32 32 31 31 30 30 31 32 32 32 31 31 31 31 30 29 28 28 27 26 25 24 23 22 21 20 19 18 18
32 32 33 33 33 33 33 33 34 33 33 32 32 32 32 33 33 32 31 31 31 31 32 33 33 33 33 32 31 30 30 29 29 28 26 26 25 24 23 22 21 20 19
34 34 35 35 35 35 35 35 35 35 34 34 34 33 32 33 33 32 31 31 31 32 33 33 33 34 34 32 32 31 31 31 31 29 28 27 26 25 25 24 23 22 21
36 36 37 37 37 37 37 36 36 36 35 35 34 33 33 34 34 33 33 32 32 33 33 34 34 34 34 33 32 32 33 33 32 31 30 28 27 26 26 25 24 24 22
38 38 37 37 37 37 37 37 37 36 36 36 35 34 33 33 34 34 34 33 32 33 33 34 35 36 36 35 33 33 34 34 34 32 30 29 28 27 26 25 24 24 23
39 39 38 38 37 37 37 37 37 37 36 36 35 35 35 35 35 35 35 35 35 34 34 36 36 37 37 36 35 35 34 35 34 33 31 30 29 27 27 26 24 23 23
37 38 37 37 36 36 36 37 37 37 36 36 36 36 36 35 35 36 36 36 35 34 34 36 37 38 38 37 37 36 35 35 35 34 32 31 30 29 28 26 25 24 23
35 35 35 35 35 35 35 35 35 36 36 36 37 37 37 37 36 36 36 35 35 35 35 36 37 39 39 38 38 38 37 36 35 34 33 32 31 29 28 26 25 24 23
34 34 34 34 34 34 34 34 35 35 36 36 37 38 38 38 38 37 37 36 37 37 37 38 38 39 39 39 40 39 38 37 36 35 34 32 31 30 28 26 25 25 23
33 33 34 34 35 35 35 36 36 37 37 37 37 37 38 39 39 39 38 38 39 40 39 39 40 41 41 41 41 40 39 38 37 36 35 33 32 31 29 27 25 24 22
34 34 35 35 35 36 36 37 37 38 39 39 39 39 39 39 40 41 41 40 40 40 41 41 42 42 43 42 41 41 40 40 39 37 36 34 33 32 30 28 26 24 22
35 35 35 36 36 37 37 38 38 39 40 40 40 41 41 41 41 42 42 42 42 42 42 43 44 44 45 44 43 43 42 41 41 39 38 36 35 33 31 29 28 25 24
35 35 35 36 36 37 38 38 39 39 39 40 41 41 41 42 42 43 43 43 44 43 43 43 44 45 46 46 46 44 44 43 42 41 40 39 37 35 33 31 29 27 25
36 36 37 37 38 38 39 39 39 39 40 41 41 42 42 42 43 44 45 45 45 46 45 45 46 46 47 48 48 46 46 46 45 44 42 41 39 37 35 33 30 28 27
38 38 38 38 38 39 39 40 40 40 40 41 42 43 44 44 44 45 45 46 47 48 49 48 48 48 48 48 49 48 48 48 47 46 45 43 41 39 37 35 33 31 29
38 38 38 38 39 39 39 40 40 41 41 42 42 43 44 45 45 46 47 47 48 49 50 51 51 50 49 49 50 49 50 50 49 48 47 46 44 42 40 37 35 33 31
39 39 39 39 39 40 40 40 40 40 40 41 42 43 43 44 45 47 48 49 49 50 51 52 53 52 51 52 51 51 52 51 51 51 50 48 46 44 43 40 38 36 33
40 40 39 40 40 40 40 40 40 39 39 40 41 42 43 44 46 47 48 50 51 51 52 54 54 55 54 54 55 54 54 54 53 52 51 50 48 47 45 43 41 38 36
40 40 40 40 40 40 40 39 39 38 38 39 40 41 42 43 45 47 49 50 52 53 54 54 56 55 56 55 56 56 55 55 54 54 54 52 50 48 47 45 43 41 38
41 40 40 40 39 39 39 38 38 37 36 37 38 39 40 42 44 46 48 50 51 53 54 56 57 57 57 56 56 58 57 56 56 55 55 54 52 50 48 47 45 43 40
41 40 39 38 38 37 38 37 36 34 34 34 36 37 38 40 42 44 47 49 51 53 54 55 57 59 60 58 56 57 58 58 56 56 55 54 52 51 49 48 47 45 43
40 39 38 38 37 36 36 35 34 32 31 31 32 34 36 37 39 41 43 47 50 52 54 55 57 59 60 60 58 57 57 58 57 55 55 54 53 52 50 49 48 47 45
Wind_Direction
278 279 278 279 282 284 283 281 280 277 274 271 270 268 264 264 260 254 250 247 244 242 237 234 232 233 229 226 224 223 222 221 219 218 216 214 212 211 212 212 212 214 216
285 284 282 283 282 282 282 282 280 278 277 272 269 267 264 264 262 258 253 248 245 244 239 235 234 234 231 227 224 226 226 224 224 222 220 219 217 216 215 216 217 219 221
289 289 286 283 283 282 283 282 281 281 277 273 269 265 264 263 261 260 256 250 246 244 241 234 234 234 233 229 225 226 227 226 226 225 223 221 220 219 219 219 220 222 225
290 289 290 287 285 284 283 283 282 281 279 274 269 265 263 263 262 261 257 251 245 242 241 236 234 234 233 230 228 226 227 227 227 226 225 223 223 223 223 224 224 225 227
291 289 289 287 285 284 284 282 281 280 278 275 269 265 263 261 261 259 257 252 246 242 241 237 235 236 234 233 230 228 228 228 227 226 225 224 224 225 226 227 228 229 231
292 290 288 287 284 283 282 280 279 278 276 274 270 267 263 260 259 258 256 252 247 243 242 239 238 237 234 231 230 230 228 228 226 225 226 225 226 227 228 229 231 232 232
293 291 289 287 285 283 281 280 278 276 274 272 269 266 261 259 258 258 255 252 248 246 242 238 237 236 233 230 230 230 227 228 228 227 226 226 227 227 229 230 231 233 234
294 292 290 288 286 284 282 280 278 275 274 272 269 264 261 259 256 256 254 253 250 245 242 238 236 235 232 229 229 230 228 227 227 226 225 226 226 228 229 230 232 233 235
294 292 290 288 286 284 282 280 277 275 273 271 268 264 260 258 256 253 252 252 249 243 241 237 234 231 229 228 227 228 228 225 224 224 224 225 226 227 228 229 230 231 232
294 292 290 289 286 284 281 279 277 274 272 270 268 264 261 257 255 252 251 250 247 243 240 237 233 229 226 226 226 228 227 224 223 224 224 226 226 226 227 227 227 229 231
293 291 290 288 286 284 281 279 276 274 271 268 266 264 261 258 254 251 249 248 245 242 238 235 232 227 225 226 226 226 225 222 222 223 224 225 225 226 226 225 225 228 230
295 293 291 289 287 284 282 279 276 273 270 267 265 263 261 258 254 251 248 247 244 239 236 233 231 228 226 225 225 223 223 222 221 222 223 222 223 224 224 222 223 225 227
297 294 292 289 287 285 282 279 276 273 270 267 264 262 260 256 253 250 248 244 242 239 235 234 231 229 226 226 224 222 222 220 220 220 221 220 220 221 221 221 222 223 226
298 295 293 291 288 286 283 280 276 273 270 267 264 261 259 256 253 249 246 243 241 238 236 233 231 228 226 225 223 222 221 219 219 219 219 218 218 218 219 219 219 220 223
301 298 296 294 291 288 285 281 278 274 270 267 264 261 258 256 253 249 245 241 238 236 235 233 230 226 224 223 222 221 220 219 218 218 217 216 216 216 216 216 216 218 219
304 301 298 295 293 290 287 284 280 276 271 267 264 261 258 254 252 248 243 240 237 236 235 232 229 226 223 221 220 220 220 219 217 216 216 215 214 213 213 214 215 217 218
307 304 301 298 294 291 289 285 281 277 272 268 264 260 257 254 251 248 243 240 237 235 234 232 228 225 223 222 220 220 219 218 217 216 216 215 214 213 213 214 215 217 218
309 306 303 300 296 293 290 287 282 277 273 268 264 260 257 254 250 247 244 241 237 234 233 230 228 225 223 222 220 219 218 218 217 216 215 215 214 214 214 214 215 216 218
311 308 305 302 299 295 292 289 284 279 274 269 265 261 257 254 250 247 244 241 237 234 232 229 228 226 224 223 220 218 218 218 217 217 215 215 215 216 216 216 216 217 219
313 310 307 305 301 298 294 290 286 281 275 270 265 261 257 253 250 246 243 241 239 236 233 229 227 227 225 223 221 220 219 217 217 217 216 216 216 217 217 217 218 218 219
314 312 309 306 304 300 296 292 288 283 277 271 266 261 257 253 250 247 243 240 238 236 233 229 227 226 225 223 222 220 219 218 218 217 216 216 217 218 218 218 219 220 220
315 313 311 308 305 302 298 295 291 286 279 272 266 261 256 254 251 247 244 240 237 236 233 230 227 225 224 224 222 220 219 218 218 217 217 217 218 219 219 219 220 221 222
317 314 312 310 307 304 301 297 293 287 281 273 266 261 257 254 251 247 244 240 237 235 232 229 226 224 223 222 222 221 219 218 219 217 217 218 219 220 220 220 220 222 223
317 315 313 311 309 307 304 301 296 290 283 275 268 263 258 255 251 248 243 239 236 234 231 228 225 222 222 221 221 222 220 220 219 218 218 218 219 220 221 221 221 222 224
318 316 315 313 312 310 307 304 300 294 287 279 271 264 260 257 252 247 242 237 234 232 230 227 225 222 220 219 219 220 221 219 220 219 218 218 218 219 220 221 221 222 224
320 318 316 315 314 312 310 307 304 299 291 283 275 267 262 257 252 247 241 236 233 231 230 227 225 222 220 219 219 218 218 218 218 220 219 218 218 219 220 221 222 223 224
Height
5863 5862 5862 5861 5860 5860 5859 5859 5858 5858 5858 5858 5859 5860 5861 5862 5863 5865 5867 5869 5871 5873 5875 5878 5880 5883 5885 5888 5891 5893 5896 5898 5900 5902 5904 5906 5908 5910 5912 5914 5915 5917 5918
5857 5856 5856 5855 5854 5853 5853 5853 5852 5852 5851 5852 5852 5853 5854 5855 5857 5858 5860 5862 5864 5866 5868 5871 5874 5877 5880 5883 5886 5889 5892 5894 5897 5899 5901 5903 5905 5907 5909 5911 5913 5915 5917
5852 5851 5850 5849 5847 5847 5846 5846 5845 5845 5845 5845 5845 5846 5847 5849 5850 5852 5853 5855 5857 5859 5862 5865 5868 5871 5874 5877 5880 5884 5887 5890 5893 5895 5898 5900 5902 5905 5907 5909 5911 5913 5915
5845 5844 5843 5842 5841 5840 5840 5839 5839 5838 5838 5838 5838 5839 5840 5841 5843 5844 5846 5848 5850 5852 5855 5858 5861 5864 5868 5871 5875 5878 5881 5885 5888 5891 5894 5896 5899 5901 5904 5906 5908 5910 5912
5838 5837 5836 5835 5834 5833 5832 5831 5831 5831 5831 5830 5831 5831 5832 5834 5835 5836 5838 5841 5843 5845 5848 5851 5854 5858 5861 5865 5868 5872 5875 5879 5883 5886 5889 5892 5895 5897 5900 5902 5905 5907 5909
5830 5829 5828 5827 5826 5825 5824 5823 5823 5823 5823 5822 5823 5824 5825 5826 5827 5829 5831 5833 5835 5838 5841 5844 5847 5850 5854 5858 5861 5865 5869 5873 5877 5880 5884 5887 5890 5893 5896 5898 5901 5903 5905
5823 5821 5819 5818 5817 5816 5815 5814 5814 5814 5814 5814 5814 5815 5816 5817 5819 5821 5823 5825 5828 5830 5833 5836 5840 5843 5846 5850 5855 5858 5862 5867 5871 5874 5878 5881 5885 5888 5891 5894 5896 5899 5901
5814 5812 5810 5808 5806 5805 5805 5804 5804 5804 5804 5804 5804 5805 5807 5810 5811 5813 5815 5817 5819 5822 5825 5828 5832 5835 5839 5844 5848 5852 5856 5860 5865 5868 5872 5876 5879 5882 5885 5888 5891 5894 5897
5804 5802 5800 5798 5797 5795 5794 5794 5793 5793 5794 5794 5794 5796 5798 5800 5802 5804 5806 5808 5811 5814 5817 5820 5824 5828 5832 5836 5841 5845 5849 5854 5858 5862 5866 5870 5873 5877 5880 5883 5886 5889 5892
5795 5792 5790 5788 5786 5785 5784 5783 5783 5783 5783 5784 5784 5785 5788 5790 5792 5795 5797 5799 5802 5805 5808 5812 5816 5820 5824 5829 5833 5838 5842 5847 5852 5856 5860 5863 5867 5871 5875 5878 5881 5885 5887
5785 5782 5780 5778 5776 5775 5774 5773 5772 5772 5773 5773 5774 5775 5777 5780 5782 5785 5788 5790 5793 5796 5799 5803 5808 5812 5816 5821 5826 5831 5835 5840 5845 5849 5854 5858 5862 5866 5869 5873 5876 5880 5882
5776 5773 5770 5768 5767 5765 5764 5763 5762 5762 5762 5763 5764 5765 5767 5769 5772 5775 5778 5780 5783 5787 5790 5794 5799 5804 5809 5814 5818 5823 5828 5833 5838 5843 5848 5852 5856 5860 5864 5867 5871 5874 5878
5767 5764 5761 5759 5757 5755 5754 5753 5752 5752 5752 5753 5753 5755 5756 5758 5761 5764 5768 5771 5774 5778 5782 5786 5791 5796 5800 5806 5811 5816 5821 5826 5831 5836 5841 5846 5850 5855 5858 5862 5866 5870 5873
5758 5755 5752 5749 5747 5745 5744 5743 5742 5741 5741 5742 5743 5744 5745 5747 5750 5753 5757 5761 5765 5769 5772 5777 5782 5787 5792 5797 5802 5808 5813 5819 5824 5829 5834 5839 5844 5849 5853 5857 5861 5865 5868
5748 5745 5742 5739 5736 5734 5733 5731 5731 5730 5730 5730 5731 5732 5734 5736 5738 5741 5745 5750 5754 5758 5762 5767 5772 5777 5783 5788 5794 5800 5805 5811 5816 5822 5827 5833 5838 5843 5848 5852 5856 5860 5864
5738 5734 5731 5728 5725 5723 5721 5720 5718 5718 5717 5718 5718 5720 5722 5724 5726 5729 5733 5738 5742 5747 5752 5757 5762 5767 5773 5779 5784 5791 5797 5803 5808 5814 5820 5826 5831 5837 5842 5846 5851 5855 5859
5728 5724 5721 5717 5714 5711 5709 5707 5706 5705 5704 5704 5705 5707 5709 5711 5714 5717 5721 5725 5730 5735 5741 5746 5751 5756 5763 5768 5775 5781 5787 5794 5800 5806 5813 5819 5825 5830 5835 5840 5845 5850 5854
5718 5714 5710 5706 5703 5699 5697 5694 5692 5691 5691 5691 5691 5693 5695 5697 5700 5704 5708 5712 5718 5723 5729 5735 5740 5746 5752 5758 5764 5771 5778 5785 5792 5798 5805 5811 5818 5823 5829 5834 5839 5844 5849
5708 5703 5699 5695 5691 5687 5684 5681 5679 5678 5677 5677 5677 5678 5680 5683 5686 5690 5694 5699 5704 5710 5716 5723 5729 5735 5741 5747 5754 5761 5768 5775 5782 5789 5796 5803 5810 5816 5822 5828 5833 5838 5843
5697 5692 5687 5683 5679 5675 5671 5668 5665 5663 5662 5662 5662 5663 5665 5668 5671 5675 5679 5684 5690 5696 5702 5709 5717 5723 5730 5736 5743 5750 5758 5765 5773 5780 5787 5795 5802 5808 5815 5821 5827 5832 5837
5687 5681 5676 5671 5666 5662 5658 5654 5651 5648 5647 5646 5646 5647 5649 5652 5656 5659 5664 5669 5675 5681 5688 5695 5703 5710 5717 5725 5732 5739 5747 5754 5762 5770 5778 5786 5793 5800 5807 5813 5820 5825 5830
5676 5671 5665 5660 5654 5649 5644 5640 5636 5634 5632 5631 5631 5631 5633 5636 5640 5643 5648 5654 5660 5666 5673 5681 5689 5697 5705 5712 5720 5728 5736 5744 5753 5762 5769 5776 5784 5791 5799 5806 5812 5818 5823
5666 5660 5654 5648 5642 5636 5631 5626 5622 5619 5617 5615 5615 5616 5617 5620 5623 5627 5632 5637 5643 5650 5658 5666 5675 5682 5691 5700 5708 5717 5724 5733 5742 5750 5758 5766 5774 5782 5790 5797 5803 5810 5816
5656 5649 5643 5636 5630 5624 5618 5613 5609 5605 5602 5600 5600 5600 5602 5604 5607 5610 5615 5621 5627 5635 5643 5651 5660 5668 5676 5685 5694 5704 5712 5720 5729 5737 5746 5755 5764 5772 5780 5788 5795 5801 5807
5646 5638 5632 5625 5619 5613 5607 5601 5596 5592 5589 5586 5585 5585 5587 5588 5591 5594 5599 5605 5612 5619 5626 5635 5644 5653 5662 5672 5681 5691 5700 5708 5717 5726 5736 5745 5754 5762 5770 5778 5785 5792 5799
5636 5629 5622 5615 5609 5603 5596 5590 5585 5580 5577 5574 5572 5572 5572 5573 5575 5578 5583 5589 5597 5604 5611 5620 5629 5639 5648 5658 5668 5678 5688 5697 5706 5716 5725 5735 5744 5752 5760 5768 5776 5783 5790